| time (UTC) | temp F | wind direction | speed MPH | gust MPH | rain 1hr in | rain 24hr in | rain mn in | humidity % | barometer mb |
| 20260503203001 | 72 | 111 | 3.0 | 9.0 | 0.00 | 0.35 | 0.01 | 82 | 1013.6 |
| 20260503202003 | 72 | 83 | 3.0 | 8.0 | 0.00 | 0.35 | 0.01 | 81 | 1013.7 |
| 20260503200006 | 72 | 97 | 3.0 | 9.0 | 0.00 | 0.35 | 0.01 | 81 | 1013.9 |
| 20260503195001 | 72 | 94 | 2.0 | 9.0 | 0.00 | 0.35 | 0.01 | 81 | 1013.9 |
| 20260503193001 | 72 | 31 | 3.0 | 11.0 | 0.01 | 0.35 | 0.01 | 83 | 1014.0 |
| 20260503192003 | 72 | 103 | 3.0 | 14.0 | 0.01 | 0.35 | 0.01 | 82 | 1014.1 |
| 20260503191001 | 72 | 80 | 3.0 | 11.0 | 0.01 | 0.35 | 0.01 | 84 | 1014.2 |
| 20260503190005 | 73 | 106 | 4.0 | 10.0 | 0.01 | 0.35 | 0.01 | 85 | 1014.4 |
| 20260503185000 | 72 | 88 | 1.0 | 8.0 | 0.01 | 0.35 | 0.01 | 89 | 1014.6 |
| 20260503184002 | 70 | 98 | 1.0 | 8.0 | 0.00 | 0.34 | 0.00 | 85 | 1014.8 |
| 20260503183000 | 71 | 131 | 3.0 | 10.0 | 0.00 | 0.34 | 0.00 | 84 | 1015.0 |
| 20260503182000 | 71 | 111 | 2.0 | 10.0 | 0.00 | 0.34 | 0.00 | 84 | 1014.9 |
| 20260503181002 | 71 | 57 | 2.0 | 9.0 | 0.00 | 0.34 | 0.00 | 83 | 1015.2 |
| 20260503174959 | 71 | 30 | 3.0 | 12.0 | 0.00 | 0.34 | 0.00 | 83 | 1015.3 |
| 20260503174000 | 71 | 66 | 3.0 | 10.0 | 0.00 | 0.34 | 0.00 | 83 | 1015.5 |
| 20260503171000 | 70 | 101 | 4.0 | 12.0 | 0.00 | 0.34 | 0.00 | 85 | 1015.6 |
| 20260503150959 | 67 | 81 | 3.0 | 9.0 | 0.00 | 0.34 | 0.00 | 91 | 1016.0 |
| 20260503131000 | 66 | 89 | 2.0 | 8.0 | 0.00 | 0.34 | 0.00 | 92 | 1014.8 |
| 20260503080959 | 72 | 349 | 0.0 | 0.0 | 0.00 | 0.34 | 0.00 | 92 | 1011.3 |
| 20260503053959 | 72 | 239 | 0.0 | 3.0 | 0.00 | 0.34 | 0.00 | 91 | 1012.1 |
| 20260503053001 | 72 | 238 | 2.0 | 4.0 | 0.00 | 0.34 | 0.00 | 91 | 1012.2 |
| 20260503051959 | 72 | 238 | 1.0 | 4.0 | 0.00 | 0.34 | 0.00 | 91 | 1012.4 |
| 20260503051001 | 72 | 240 | 1.0 | 4.0 | 0.00 | 0.34 | 0.00 | 91 | 1012.7 |
| 20260503050004 | 72 | 238 | 0.0 | 2.0 | 0.00 | 0.34 | 0.00 | 92 | 1012.5 |
| 20260503043003 | 72 | 244 | 1.0 | 4.0 | 0.00 | 0.34 | 0.00 | 93 | 1012.8 |
| 20260503042001 | 72 | 192 | 0.0 | 3.0 | 0.00 | 0.34 | 0.00 | 93 | 1012.7 |
| 20260503041003 | 72 | 190 | 0.0 | 3.0 | 0.00 | 0.34 | 0.00 | 93 | 1012.8 |
| 20260503040005 | 72 | 184 | 0.0 | 0.0 | 0.00 | 0.34 | 0.00 | 93 | 1012.8 |
| 20260503034001 | 72 | 184 | 0.0 | 0.0 | 0.00 | 0.34 | 0.34 | 93 | 1012.1 |
| 20260503033001 | 73 | 184 | 0.0 | 0.0 | 0.00 | 0.34 | 0.34 | 93 | 1012.0 |
| 20260503032003 | 73 | 184 | 0.0 | 0.0 | 0.01 | 0.34 | 0.34 | 93 | 1011.6 |
| 20260503031001 | 73 | 184 | 0.0 | 4.0 | 0.02 | 0.34 | 0.34 | 93 | 1011.7 |
| 20260503025001 | 73 | 180 | 1.0 | 3.0 | 0.03 | 0.34 | 0.34 | 93 | 1011.1 |
| 20260503024022 | 73 | 178 | 0.0 | 3.0 | 0.03 | 0.34 | 0.34 | 93 | 1010.7 |
| 20260503023001 | 73 | 161 | 0.0 | 3.0 | 0.03 | 0.34 | 0.34 | 93 | 1010.6 |
| 20260503022022 | 73 | 213 | 0.0 | 1.0 | 0.02 | 0.33 | 0.33 | 92 | 1010.8 |
| 20260503021001 | 72 | 246 | 0.0 | 2.0 | 0.01 | 0.32 | 0.32 | 92 | 1011.4 |
| 20260503020005 | 72 | 246 | 1.0 | 4.0 | 0.00 | 0.31 | 0.31 | 92 | 1011.7 |
| 20260503014003 | 72 | 219 | 2.0 | 6.0 | 0.00 | 0.31 | 0.31 | 91 | 1011.2 |
| 20260503013001 | 72 | 180 | 2.0 | 5.0 | 0.00 | 0.31 | 0.31 | 91 | 1010.4 |
| 20260503012003 | 72 | 146 | 2.0 | 4.0 | 0.01 | 0.31 | 0.31 | 91 | 1010.1 |
| 20260503011001 | 72 | 172 | 0.0 | 3.0 | 0.01 | 0.31 | 0.31 | 91 | 1010.8 |
| 20260503005001 | 72 | 171 | 1.0 | 3.0 | 0.01 | 0.31 | 0.31 | 92 | 1010.0 |
| 20260503004022 | 72 | 172 | 1.0 | 3.0 | 0.01 | 0.31 | 0.31 | 92 | 1010.5 |
| 20260503003001 | 72 | 174 | 1.0 | 3.0 | 0.01 | 0.31 | 0.31 | 92 | 1010.3 |
| 20260503002003 | 72 | 187 | 0.0 | 5.0 | 0.01 | 0.30 | 0.30 | 91 | 1010.9 |
| 20260503001001 | 72 | 159 | 0.0 | 2.0 | 0.06 | 0.30 | 0.30 | 91 | 1010.3 |
| 20260503000005 | 71 | 107 | 1.0 | 3.0 | 0.07 | 0.30 | 0.30 | 91 | 1009.7 |
| 20260502235000 | 72 | 108 | 1.0 | 3.0 | 0.07 | 0.30 | 0.30 | 91 | 1010.3 |
| 20260502234002 | 72 | 281 | 0.0 | 0.0 | 0.07 | 0.30 | 0.30 | 91 | 1010.4 |
| 20260502233000 | 72 | 281 | 0.0 | 0.0 | 0.07 | 0.30 | 0.30 | 91 | 1010.6 |
| 20260502232002 | 72 | 281 | 1.0 | 4.0 | 0.05 | 0.28 | 0.28 | 91 | 1010.7 |
| 20260502231000 | 72 | 293 | 0.0 | 4.0 | 0.00 | 0.23 | 0.23 | 91 | 1010.7 |
| 20260502224959 | 72 | 303 | 0.0 | 3.0 | 0.23 | 0.23 | 0.23 | 90 | 1010.3 |
| 20260502224002 | 73 | 279 | 1.0 | 4.0 | 0.23 | 0.23 | 0.23 | 90 | 1010.3 |
| 20260502223000 | 73 | 323 | 1.0 | 4.0 | 0.23 | 0.23 | 0.23 | 89 | 1010.5 |
| 20260502222002 | 74 | 331 | 4.0 | 10.0 | 0.23 | 0.23 | 0.23 | 89 | 1010.3 |
| 20260502221000 | 75 | 277 | 5.0 | 11.0 | 0.23 | 0.23 | 0.23 | 85 | 1009.9 |
| 20260502220006 | 79 | 231 | 7.0 | 24.0 | 0.22 | 0.22 | 0.22 | 80 | 1009.8 |
| 20260502215000 | 82 | 209 | 4.0 | 10.0 | 0.00 | 0.00 | 0.00 | 78 | 1009.1 |
| 20260502214002 | 82 | 234 | 6.0 | 13.0 | 0.00 | 0.00 | 0.00 | 76 | 1009.3 |
| 20260502212002 | 84 | 287 | 6.0 | 12.0 | 0.00 | 0.00 | 0.00 | 74 | 1009.4 |
| 20260502211000 | 84 | 247 | 7.0 | 13.0 | 0.00 | 0.00 | 0.00 | 73 | 1009.0 |
| 20260502210005 | 84 | 239 | 5.0 | 12.0 | 0.00 | 0.00 | 0.00 | 70 | 1008.7 |
| 20260502205000 | 84 | 232 | 6.0 | 12.0 | 0.00 | 0.00 | 0.00 | 68 | 1008.7 |
| 20260502204002 | 85 | 236 | 7.0 | 11.0 | 0.00 | 0.00 | 0.00 | 66 | 1008.7 |